STARLINK-5749 (55569 NORAD) Tracking and Keplerian Element Data

This shows tracking and keplerian element data for the satellite.

Feedback or suggestion? Click here.




ElementValue
Catalog55569
NameSTARLINK-5749
Epoch Orbit654
Epoch Day85.25001157
Epoch Year2023
RAAN110.4633
Inclination42.9981
Eccentricity0.0001071
Argument of Perigee278.4986
Mean Anonmoly249.7912
Mean Motion15.04667314
Decay Rate-0.00281252
L11 55569U 23020A 23085.25001157 -.00281252 00000+0 -20451-1 0 9990
L22 55569 42.9981 110.4633 0001071 278.4986 249.7912 15.04667314 6542



Live tracking and technical data element details for STARLINK-5749 (NORAD 55569). STARLINK-5749 can be tracked NOW for your location showing map with azimuth and elevation plus other details from your city location.







IsCatalogInMostPopularTable: catalog: 55569, numindb: -1

Insert: records affected: 1


GetName: 55569 STARLINK-5749

Hit Count: inserted at: Tue, 28 Mar 2023 02:40:41 GMT